Regional Weather Roundup
Issued by NWS Kansas City/Pleasant Hill, MO

Home | Current Version | Previous Version | Text Only | Print | Product List | Glossary On
Versions: 1 2 3 4 5 6 7 8 9 10 11 12 13 14 15 16 17 18 19 20 21 22 23 24 25 26 27 28 29 30 31 32 33 34 35 36 37 38 39 40 41 42 43 44 45 46 47 48 49 50
955
ASUS43 KEAX 060310
RWREAX

WEATHER ROUNDUP FOR EASTERN KANSAS AND NORTHWEST MISSOURI
NATIONAL WEATHER SERVICE KANSAS CITY/PLEASANT HILL MO
1000 PM CDT THU MAY 05 2016

KSZ040-057-103>105-MOZ028-029-037-043-060400-
...KANSAS CITY METROPOLITAN AREA...

CITY           SKY/WX    TMP DP  RH WIND       PRES   REMARKS
K.C. INTL      CLEAR     63  38  39 E3        30.04R
K.C. DOWNTOWN  CLEAR     63  43  48 CALM      30.03R
LEES SUMMIT    CLEAR     64  36  35 NE3       30.05R
OLATHE - IXD   CLEAR     57  44  62 CALM      30.05R
OLATHE - OJC   CLEAR     58  43  57 CALM      30.05R
LAWRENCE       CLEAR     54  47  77 CALM      30.04R

$$

MOZ001>008-011>017-020>025-030>033-038>040-044>046-053-054-060400-
...NORTHERN AND CENTRAL MISSOURI...

CITY           SKY/WX    TMP DP  RH WIND       PRES   REMARKS
ST. JOSEPH     CLEAR     61  47  59 SW3       30.04R
MOSBY          CLEAR     55  46  71 CALM      30.04R
WARRENSBURG    CLEAR     57  41  54 CALM      30.04R
WHITEMAN AFB   CLEAR     60  35  39 S2        30.03R
CLINTON        CLEAR     54  45  71 CALM      30.05R
SEDALIA        CLEAR     61  32  33 CALM      30.06R
WARSAW         NOT AVBL
CHILLICOTHE      N/A     52  44  74 CALM      30.05R
KIRKSVILLE     CLEAR     47  42  83 W3        30.04S

$$

MOZ041-047>049-056>058-063>065-088>090-097-060400-
...EASTERN AND SOUTHERN MISSOURI...

CITY           SKY/WX    TMP DP  RH WIND       PRES   REMARKS
ST. LOUIS INTL CLEAR     57  43  59 NW3       30.03R
SPIRIT OF STL  CLEAR     50  46  86 W5        30.03R
COLUMBIA       CLEAR     57  40  52 N3        30.04R
JEFFERSON CITY CLEAR     54  41  61 CALM      30.04R
ROLLA          CLEAR     50  40  68 CALM      30.03R
OSAGE BEACH    CLEAR     50  32  50 CALM      30.05R
SPRINGFIELD    CLEAR     52  39  61 CALM      30.04R
JOPLIN         CLEAR     59  43  55 CALM      30.05R
WEST PLAINS    CLEAR     52  36  54 CALM      30.05R

$$

IAZ060-094-KSZ022-034>040-054-083-096-NEZ052-066-093-060400-
...KANSAS...SOUTHEAST NEBRASKA AND IOWA...

CITY           SKY/WX    TMP DP  RH WIND       PRES   REMARKS
TOPEKA         CLEAR     59  49  69 CALM      30.04R
MANHATTAN      CLEAR     63  45  51 CALM      30.03R
EMPORIA        CLEAR     60  46  59 S5        30.04R
CHANUTE        CLEAR     57  48  72 CALM      30.04R
WICHITA        CLEAR     65  46  50 S3        30.04R
OMAHA          MOCLDY    63  46  54 S6        30.00R
LINCOLN        CLEAR     62  43  49 S7        30.02R
FALLS CITY     CLEAR     66  40  38 SE5       30.02R
LAMONI         CLEAR     60  39  45 S6        30.03R
DES MOINES     CLEAR     60  38  43 S8        30.00S

$$





USA.gov is the U.S. government's official web portal to all federal, state and local government web resources and services.